Weather History for Buffalo, SD

Change the Weather History Date:

Sunday, December 1, 2013

  Actual Average Record
Temperature  
Mean Temperature 42 °F 24 °F  
Max Temperature 51 °F 35 °F 64 °F (1998)
Min Temperature 32 °F 14 °F -12 °F (2014)
Degree Days  
Heating Degree Days 23 41  
Month to date heating degree days 23 41  
Since 1 July heating degree days 1813 1939  
Cooling Degree Days 0 0  
Month to date cooling degree days 0 0  
Year to date cooling degree days 587 513  
Moisture  
Dew Point 29 °F    
Average Humidity 67    
Maximum Humidity 92    
Minimum Humidity 41    
Precipitation  
Precipitation 0.02 in 0.01 in 0.04 in (2007)
Month to date precipitation 0.02 0.01  
Year to date precipitation 12.17 14.24  
Sea Level Pressure  
Sea Level Pressure 29.82 in    
Wind  
Wind Speed 7 mph (SW)    
Max Wind Speed 16 mph    
Max Gust Speed 20 mph    
T = Trace of Precipitation, MM = Missing Value Source: NWS Daily Summary

Daily Weather History Graph

Daily Weather History Graph

Search for Another Location

Airport:

Trip Planner

Search our weather history database for the weather conditions in past years. The results will help you decide how hot, cold, wet, or windy it might be!

Date:

Astronomy

Dec. 01, 2013 Rise Set
Actual Time 7:14 AM MST 4:11 PM MST
Civil Twilight 6:41 AM MST 4:45 PM MST
Nautical Twilight 6:03 AM MST 5:22 PM MST
Astronomical Twilight 5:28 AM MST 5:58 PM MST
Moon 5:31 AM MST (12/1) 3:26 PM MST (12/1)
Length of Visible Light 10h 04m
Length of Day
8h 57m
Waning Crescent, 2% of the Moon is Illuminated
Dec 1
Waning Crescent
Dec 2
New
Dec 9
First Quarter
Dec 17
Full
Dec 25
Last Quarter

Hourly Weather History & Observations

Time (MST) Temp. Windchill Dew Point Humidity Pressure Visibility Wind Dir Wind Speed Gust Speed Precip Events Conditions
12:56 AM 36.0 °F 33.3 °F 28.0 °F 73% 30.01 in - South 3.5 mph - N/A   Unknown
1:56 AM 34.0 °F - 28.0 °F 79% 30.01 in - Calm Calm - N/A   Unknown
2:56 AM 35.1 °F 29.3 °F 28.0 °F 76% 29.99 in - SSE 6.9 mph - N/A   Unknown
3:56 AM 36.0 °F 31.1 °F 28.0 °F 73% 29.98 in - South 5.8 mph - N/A   Unknown
4:56 AM 36.0 °F 30.3 °F 28.9 °F 76% 29.96 in - SSW 6.9 mph - N/A   Unknown
5:56 AM 39.0 °F 34.8 °F 28.0 °F 65% 29.96 in - West 5.8 mph - N/A   Unknown
6:56 AM 36.0 °F 28.0 °F 28.0 °F 73% 29.96 in - WSW 11.5 mph - N/A   Unknown
7:56 AM 35.1 °F 27.4 °F 27.0 °F 72% 29.96 in - West 10.4 mph - N/A   Unknown
8:56 AM 39.9 °F 33.9 °F 28.9 °F 65% 29.94 in - WSW 9.2 mph - N/A   Unknown
9:56 AM 45.0 °F 40.1 °F 30.0 °F 56% 29.91 in - WSW 9.2 mph - N/A   Unknown
10:56 AM 46.9 °F - 28.9 °F 50% 29.88 in - West 13.8 mph - N/A   Unknown
11:56 AM 48.9 °F - 28.9 °F 46% 29.84 in - West 9.2 mph - N/A   Unknown
12:56 PM 50.0 °F - 28.9 °F 44% 29.80 in - SW 11.5 mph - N/A   Unknown
1:56 PM 51.1 °F - 28.0 °F 41% 29.76 in - West 13.8 mph - N/A   Unknown
2:56 PM 48.0 °F - 28.0 °F 46% 29.74 in - SW 5.8 mph - N/A   Unknown
3:56 PM 46.0 °F 43.1 °F 28.0 °F 50% 29.73 in - SW 5.8 mph - N/A   Unknown
4:56 PM 46.9 °F - 28.0 °F 48% 29.70 in - Calm Calm - N/A   Unknown
5:56 PM 43.0 °F - 28.0 °F 56% 29.68 in - Calm Calm - N/A   Unknown
6:56 PM 42.1 °F 40.2 °F 28.0 °F 58% 29.67 in - East 3.5 mph - N/A   Unknown
7:56 PM 41.0 °F 36.4 °F 27.0 °F 57% 29.67 in - SW 6.9 mph - N/A   Unknown
8:56 PM 37.9 °F 32.1 °F 30.0 °F 73% 29.66 in - West 8.1 mph - N/A   Unknown
9:56 PM 39.0 °F 35.7 °F 34.0 °F 82% 29.62 in - WSW 4.6 mph - 0.02 in   Unknown
10:56 PM 37.9 °F 32.7 °F 35.1 °F 89% 29.59 in - South 6.9 mph - N/A   Unknown
11:56 PM 37.0 °F 32.4 °F 35.1 °F 93% 29.57 in - SSW 5.8 mph - N/A   Unknown